SKYSAT-C1

Last updated on Thu Jul 03 2025 00:02:30 GMT+0000 (Coordinated Universal Time)

1 41601U 16040C 25183.54572606 .00006003 00000+0 21455-3 0 9995 2 41601 97.0045 229.9266 0003127 159.2177 200.9192 15.29160633504312
UTC large
Height (km)
Speed (km/s)
/
Latitude / Longitude
Inclination (degrees)
Orbital Period (minutes)
Azimuth
Elevation
Range (km)
Doppler Factor

Next 0 passes for location: London (51.5072 / 0.1276)

Sorry there are no passes over London.